TimeEDT,TemperatureF,Dew PointF,Humidity,Sea Level PressureIn,VisibilityMPH,Wind Direction,Wind SpeedMPH,Gust SpeedMPH,PrecipitationIn,Events,Conditions,WindDirDegrees,DateUTC
12:09 AM,41.0,39.2,93,30.19,10.0,Calm,Calm,-,N/A,,Overcast,0,2012-10-09 04:09:00
12:17 AM,41.0,37.4,87,30.19,10.0,Calm,Calm,-,N/A,,Overcast,0,2012-10-09 04:17:00
12:51 AM,41.0,39.0,93,30.23,10.0,Calm,Calm,-,N/A,,Overcast,0,2012-10-09 04:51:00
1:51 AM,41.0,37.9,89,30.22,10.0,Calm,Calm,-,N/A,,Overcast,0,2012-10-09 05:51:00
2:51 AM,41.0,39.0,93,30.22,10.0,Calm,Calm,-,N/A,,Overcast,0,2012-10-09 06:51:00
4:51 AM,42.1,37.9,85,30.21,10.0,Calm,Calm,-,N/A,,Overcast,0,2012-10-09 08:51:00
5:48 AM,42.8,39.2,87,30.17,10.0,Calm,Calm,-,N/A,,Overcast,0,2012-10-09 09:48:00
5:51 AM,42.1,39.0,89,30.22,9.0,Calm,Calm,-,N/A,,Overcast,0,2012-10-09 09:51:00
6:51 AM,42.1,39.0,89,30.23,10.0,Calm,Calm,-,N/A,,Overcast,0,2012-10-09 10:51:00
7:46 AM,42.8,39.2,87,30.19,9.0,Calm,Calm,-,N/A,,Overcast,0,2012-10-09 11:46:00
7:51 AM,42.8,39.2,87,30.19,8.0,Calm,Calm,-,N/A,,Overcast,0,2012-10-09 11:51:00
7:58 AM,42.8,39.2,87,30.19,8.0,Calm,Calm,-,N/A,,Overcast,0,2012-10-09 11:58:00
8:51 AM,43.0,39.9,89,30.24,10.0,Calm,Calm,-,N/A,,Overcast,0,2012-10-09 12:51:00
9:00 AM,42.8,39.2,87,30.19,10.0,Calm,Calm,-,N/A,,Overcast,0,2012-10-09 13:00:00
9:31 AM,44.6,39.2,81,30.19,10.0,Calm,Calm,-,N/A,,Overcast,0,2012-10-09 13:31:00
9:51 AM,44.6,39.2,81,30.20,10.0,Calm,Calm,-,N/A,,Overcast,0,2012-10-09 13:51:00
10:51 AM,46.9,39.9,77,30.22,10.0,Calm,Calm,-,N/A,,Overcast,0,2012-10-09 14:51:00
11:51 AM,50.0,39.9,68,30.20,10.0,WNW,3.5,-,N/A,,Overcast,300,2012-10-09 15:51:00
12:51 PM,52.0,42.1,69,30.19,10.0,Calm,Calm,-,N/A,,Overcast,0,2012-10-09 16:51:00
1:51 PM,54.0,41.0,62,30.15,10.0,Calm,Calm,-,N/A,,Overcast,0,2012-10-09 17:51:00
2:51 PM,55.0,41.0,59,30.12,10.0,WSW,4.6,-,N/A,,Mostly Cloudy,250,2012-10-09 18:51:00
3:51 PM,57.0,42.1,57,30.11,10.0,NNW,4.6,-,N/A,,Clear,340,2012-10-09 19:51:00
4:51 PM,57.9,42.1,56,30.09,10.0,NNW,4.6,-,N/A,,Clear,340,2012-10-09 20:51:00
5:51 PM,55.0,42.1,62,30.10,10.0,WNW,6.9,-,N/A,,Clear,300,2012-10-09 21:51:00
6:51 PM,51.1,42.1,71,30.11,10.0,Calm,Calm,-,N/A,,Clear,0,2012-10-09 22:51:00
7:51 PM,44.1,41.0,89,30.12,10.0,Calm,Calm,-,N/A,,Clear,0,2012-10-09 23:51:00
8:51 PM,42.1,39.9,92,30.12,10.0,Calm,Calm,-,N/A,,Clear,0,2012-10-10 00:51:00
9:51 PM,39.9,37.9,93,30.12,10.0,Calm,Calm,-,N/A,,Clear,0,2012-10-10 01:51:00
10:43 PM,37.4,35.6,93,30.07,4.0,Calm,Calm,-,N/A,,Partly Cloudy,0,2012-10-10 02:43:00
10:47 PM,37.4,35.6,93,30.07,1.8,Calm,Calm,-,N/A,,Partly Cloudy,0,2012-10-10 02:47:00
10:51 PM,37.0,36.0,96,30.11,1.5,Calm,Calm,-,N/A,,Partly Cloudy,0,2012-10-10 02:51:00
10:56 PM,37.4,35.6,93,30.06,3.0,Calm,Calm,-,N/A,,Partly Cloudy,0,2012-10-10 02:56:00
11:19 PM,37.4,35.6,93,30.06,1.2,Calm,Calm,-,N/A,,Scattered Clouds,0,2012-10-10 03:19:00
11:25 PM,37.4,35.6,93,30.05,0.2,Calm,Calm,-,N/A,Fog,Fog,0,2012-10-10 03:25:00
11:51 PM,39.0,37.0,93,30.09,0.2,WSW,3.5,-,N/A,Fog,Fog,250,2012-10-10 03:51:00